Location: Agadir Mansour Mhndou
(31.2424°N, 8.7730°W)
Time: 19:48:08
(UTC+00:00)

USA 229 - Pass Details

Date: 16 October 2021
Orbit: 946 x 1266 km, 63.4° (Epoch: 25 November)

Event Time Altitude Azimuth Distance (km) Brightness Sun altitude
Rises 19:35:48 0° 184° (S) 3,596 6.5 -20.8°
Reaches altitude 10° 19:38:30 10° 176° (S) 2,661 5.7 -21.4°
Enters shadow 19:42:52 33° 135° (SE) 1,555 4.2 -22.3°
